| time (UTC) | temp F | wind direction | speed MPH | gust MPH | rain 1hr in | rain 24hr in | rain mn in | humidity % | barometer mb |
| 20260902095533 | 56 | 19 | 0.0 | 2.0 | 0.00 | 0.34 | 0.13 | 89 | 1012.8 |
| 20260902095032 | 56 | 0 | 0.0 | 2.0 | 0.00 | 0.34 | 0.13 | 89 | 1012.9 |
| 20260902094554 | 56 | 92 | 1.0 | 1.0 | 0.00 | 0.34 | 0.13 | 89 | 1012.8 |
| 20260902094032 | 56 | 0 | 0.0 | 1.0 | 0.00 | 0.34 | 0.13 | 89 | 1012.9 |
| 20260902093532 | 56 | 0 | 0.0 | 1.0 | 0.00 | 0.34 | 0.13 | 89 | 1012.9 |
| 20260902093047 | 56 | 72 | 1.0 | 1.0 | 0.00 | 0.34 | 0.13 | 89 | 1012.9 |
| 20260902092532 | 56 | 75 | 1.0 | 1.0 | 0.02 | 0.34 | 0.13 | 89 | 1012.9 |
| 20260902092036 | 56 | 98 | 0.0 | 1.0 | 0.02 | 0.34 | 0.13 | 89 | 1012.9 |
| 20260902091541 | 56 | 91 | 0.0 | 1.0 | 0.03 | 0.34 | 0.13 | 89 | 1012.9 |
| 20260902091031 | 56 | 58 | 0.0 | 1.0 | 0.03 | 0.34 | 0.13 | 89 | 1012.9 |
| 20260902090608 | 55 | 0 | 0.0 | 1.0 | 0.03 | 0.34 | 0.13 | 89 | 1013.2 |
| 20260902090043 | 56 | 0 | 0.0 | 1.0 | 0.03 | 0.34 | 0.13 | 89 | 1013.2 |
| 20260902085532 | 56 | 69 | 0.0 | 1.0 | 0.03 | 0.40 | 0.13 | 89 | 1013.1 |
| 20260902085032 | 56 | 0 | 0.0 | 1.0 | 0.03 | 0.40 | 0.13 | 89 | 1013.2 |
| 20260902084558 | 55 | 73 | 0.0 | 1.0 | 0.03 | 0.40 | 0.13 | 89 | 1013.0 |
| 20260902084032 | 55 | 0 | 0.0 | 0.0 | 0.03 | 0.40 | 0.13 | 89 | 1013.1 |
| 20260902083533 | 55 | 0 | 0.0 | 0.0 | 0.03 | 0.39 | 0.12 | 89 | 1013.1 |
| 20260902083057 | 55 | 0 | 0.0 | 0.0 | 0.03 | 0.39 | 0.12 | 89 | 1013.1 |
| 20260902082532 | 55 | 0 | 0.0 | 0.0 | 0.02 | 0.37 | 0.11 | 89 | 1013.0 |
| 20260902082032 | 55 | 0 | 0.0 | 0.0 | 0.02 | 0.37 | 0.10 | 89 | 1013.2 |
| 20260902081544 | 55 | 0 | 0.0 | 0.0 | 0.03 | 0.37 | 0.10 | 89 | 1013.1 |
| 20260902081033 | 55 | 0 | 0.0 | 1.0 | 0.02 | 0.36 | 0.09 | 89 | 1013.2 |
| 20260902080533 | 55 | 0 | 0.0 | 1.0 | 0.02 | 0.36 | 0.09 | 89 | 1013.1 |
| 20260902075535 | 55 | 81 | 0.0 | 1.0 | 0.03 | 0.41 | 0.09 | 89 | 1013.1 |
| 20260902075032 | 55 | 0 | 0.0 | 1.0 | 0.03 | 0.41 | 0.09 | 89 | 1013.3 |
| 20260902074543 | 54 | 0 | 0.0 | 1.0 | 0.03 | 0.41 | 0.09 | 89 | 1013.1 |
| 20260902074032 | 54 | 85 | 0.0 | 1.0 | 0.03 | 0.41 | 0.09 | 89 | 1013.2 |
| 20260902073532 | 54 | 270 | 0.0 | 1.0 | 0.03 | 0.41 | 0.09 | 89 | 1013.3 |
| 20260902073046 | 54 | 74 | 0.0 | 2.0 | 0.03 | 0.40 | 0.08 | 89 | 1013.2 |
| 20260902072532 | 54 | 91 | 0.0 | 2.0 | 0.02 | 0.40 | 0.07 | 89 | 1013.3 |
| 20260902072034 | 54 | 83 | 1.0 | 1.0 | 0.03 | 0.40 | 0.07 | 89 | 1013.1 |
| 20260902071544 | 54 | 70 | 0.0 | 1.0 | 0.02 | 0.39 | 0.07 | 89 | 1013.3 |
| 20260902071033 | 54 | 82 | 0.0 | 1.0 | 0.02 | 0.39 | 0.07 | 89 | 1013.2 |
| 20260902070533 | 54 | 0 | 0.0 | 1.0 | 0.03 | 0.39 | 0.07 | 89 | 1013.2 |
| 20260902070047 | 54 | 77 | 0.0 | 1.0 | 0.03 | 0.39 | 0.07 | 89 | 1013.2 |
| 20260902065533 | 54 | 87 | 0.0 | 1.0 | 0.02 | 0.40 | 0.06 | 89 | 1013.2 |
| 20260902065031 | 54 | 87 | 0.0 | 2.0 | 0.02 | 0.40 | 0.06 | 89 | 1013.2 |
| 20260902064554 | 54 | 52 | 0.0 | 2.0 | 0.01 | 0.39 | 0.05 | 89 | 1013.1 |
| 20260902064032 | 54 | 136 | 0.0 | 2.0 | 0.01 | 0.39 | 0.05 | 89 | 1013.2 |
| 20260902063532 | 55 | 27 | 0.0 | 1.0 | 0.02 | 0.39 | 0.05 | 89 | 1013.2 |
| 20260902063044 | 55 | 27 | 0.0 | 1.0 | 0.02 | 0.39 | 0.05 | 89 | 1013.1 |
| 20260902062533 | 55 | 27 | 0.0 | 1.0 | 0.02 | 0.39 | 0.05 | 89 | 1013.2 |
| 20260902062033 | 55 | 53 | 0.0 | 1.0 | 0.01 | 0.38 | 0.04 | 89 | 1013.3 |
| 20260902061032 | 55 | 0 | 0.0 | 1.0 | 0.01 | 0.38 | 0.04 | 89 | 1013.2 |
| 20260902060532 | 55 | 0 | 0.0 | 1.0 | 0.01 | 0.37 | 0.03 | 89 | 1013.3 |
| 20260902060053 | 55 | 0 | 0.0 | 1.0 | 0.01 | 0.37 | 0.03 | 89 | 1013.3 |
| 20260902055532 | 55 | 84 | 0.0 | 1.0 | 0.01 | 0.37 | 0.03 | 89 | 1013.3 |
| 20260902055032 | 55 | 91 | 0.0 | 1.0 | 0.01 | 0.37 | 0.03 | 89 | 1013.3 |
| 20260902054549 | 55 | 105 | 0.0 | 1.0 | 0.02 | 0.37 | 0.03 | 89 | 1013.3 |
| 20260902054033 | 55 | 0 | 0.0 | 0.0 | 0.02 | 0.37 | 0.03 | 89 | 1013.2 |
| 20260902053532 | 55 | 0 | 0.0 | 0.0 | 0.01 | 0.37 | 0.03 | 89 | 1013.3 |
| 20260902053045 | 55 | 0 | 0.0 | 0.0 | 0.01 | 0.37 | 0.03 | 89 | 1013.3 |
| 20260902052531 | 55 | 0 | 0.0 | 0.0 | 0.01 | 0.37 | 0.03 | 89 | 1013.4 |
| 20260902052031 | 55 | 0 | 0.0 | 0.0 | 0.01 | 0.37 | 0.03 | 89 | 1013.4 |
| 20260902051544 | 55 | 0 | 0.0 | 0.0 | 0.01 | 0.37 | 0.03 | 89 | 1013.5 |
| 20260902051032 | 55 | 0 | 0.0 | 0.0 | 0.01 | 0.37 | 0.03 | 89 | 1013.5 |
| 20260902050535 | 55 | 0 | 0.0 | 0.0 | 0.01 | 0.36 | 0.02 | 89 | 1013.6 |
| 20260902050051 | 55 | 0 | 0.0 | 0.0 | 0.01 | 0.36 | 0.02 | 89 | 1013.6 |
| 20260902045532 | 55 | 0 | 0.0 | 0.0 | 0.01 | 0.36 | 0.02 | 89 | 1013.6 |
| 20260902045032 | 55 | 0 | 0.0 | 0.0 | 0.00 | 0.35 | 0.01 | 89 | 1013.6 |
| 20260902044546 | 55 | 0 | 0.0 | 0.0 | 0.00 | 0.35 | 0.01 | 89 | 1013.6 |
| 20260902044032 | 55 | 0 | 0.0 | 0.0 | 0.00 | 0.35 | 0.01 | 89 | 1013.5 |
| 20260902043531 | 55 | 0 | 0.0 | 0.0 | 0.00 | 0.35 | 0.01 | 89 | 1013.6 |
| 20260902043103 | 55 | 0 | 0.0 | 0.0 | 0.00 | 0.35 | 0.01 | 89 | 1013.7 |
| 20260902042531 | 55 | 0 | 0.0 | 0.0 | 0.00 | 0.35 | 0.01 | 88 | 1013.6 |
| 20260902042032 | 55 | 0 | 0.0 | 0.0 | 0.00 | 0.35 | 0.01 | 88 | 1013.6 |
| 20260902041550 | 55 | 0 | 0.0 | 0.0 | 0.00 | 0.35 | 0.01 | 88 | 1013.6 |
| 20260902041032 | 55 | 0 | 0.0 | 0.0 | 0.00 | 0.35 | 0.01 | 88 | 1013.7 |
| 20260902040531 | 55 | 0 | 0.0 | 0.0 | 0.00 | 0.34 | 0.00 | 89 | 1013.6 |
| 20260902040051 | 55 | 0 | 0.0 | 0.0 | 0.00 | 0.34 | 0.00 | 89 | 1013.8 |
| 20260902035533 | 55 | 0 | 0.0 | 0.0 | 0.00 | 0.34 | 0.00 | 89 | 1013.8 |
| 20260902035032 | 55 | 0 | 0.0 | 0.0 | 0.00 | 0.34 | 0.00 | 89 | 1013.8 |
| 20260902034546 | 55 | 0 | 0.0 | 0.0 | 0.00 | 0.34 | 0.00 | 89 | 1013.9 |
| 20260902034035 | 55 | 0 | 0.0 | 0.0 | 0.00 | 0.34 | 0.00 | 89 | 1013.8 |
| 20260902033532 | 55 | 0 | 0.0 | 0.0 | 0.00 | 0.34 | 0.00 | 89 | 1013.8 |
| 20260902033102 | 55 | 0 | 0.0 | 0.0 | 0.00 | 0.34 | 0.00 | 88 | 1013.8 |
| 20260902032534 | 55 | 0 | 0.0 | 0.0 | 0.00 | 0.34 | 0.00 | 88 | 1013.8 |
| 20260902032031 | 55 | 0 | 0.0 | 0.0 | 0.00 | 0.34 | 0.00 | 88 | 1013.8 |
| 20260902031545 | 55 | 0 | 0.0 | 0.0 | 0.00 | 0.34 | 0.00 | 88 | 1013.8 |
| 20260902031032 | 55 | 0 | 0.0 | 0.0 | 0.00 | 0.34 | 0.00 | 88 | 1013.9 |
| 20260902030535 | 55 | 0 | 0.0 | 0.0 | 0.00 | 0.34 | 0.00 | 88 | 1013.8 |
| 20260902030049 | 55 | 0 | 0.0 | 0.0 | 0.00 | 0.34 | 0.00 | 88 | 1013.8 |
| 20260902025531 | 55 | 0 | 0.0 | 0.0 | 0.00 | 0.34 | 0.00 | 88 | 1013.8 |
| 20260902025033 | 55 | 0 | 0.0 | 0.0 | 0.00 | 0.34 | 0.00 | 88 | 1013.9 |
| 20260902024545 | 55 | 0 | 0.0 | 0.0 | 0.00 | 0.34 | 0.00 | 88 | 1014.0 |
| 20260902024031 | 55 | 0 | 0.0 | 0.0 | 0.00 | 0.34 | 0.00 | 88 | 1013.9 |
| 20260902023531 | 55 | 0 | 0.0 | 0.0 | 0.00 | 0.34 | 0.00 | 88 | 1013.9 |
| 20260902023043 | 55 | 0 | 0.0 | 0.0 | 0.00 | 0.34 | 0.00 | 88 | 1014.0 |
| 20260902022533 | 55 | 0 | 0.0 | 0.0 | 0.00 | 0.34 | 0.00 | 88 | 1014.0 |
| 20260902022033 | 55 | 0 | 0.0 | 0.0 | 0.00 | 0.34 | 0.00 | 88 | 1014.1 |
| 20260902021543 | 55 | 0 | 0.0 | 0.0 | 0.00 | 0.34 | 0.00 | 88 | 1014.0 |
| 20260902021034 | 55 | 0 | 0.0 | 0.0 | 0.00 | 0.34 | 0.00 | 88 | 1014.1 |
| 20260902020532 | 55 | 0 | 0.0 | 0.0 | 0.00 | 0.34 | 0.00 | 88 | 1014.0 |
| 20260902020051 | 55 | 0 | 0.0 | 0.0 | 0.00 | 0.34 | 0.00 | 88 | 1014.1 |
| 20260902015530 | 55 | 0 | 0.0 | 0.0 | 0.00 | 0.34 | 0.00 | 88 | 1014.2 |
| 20260902015030 | 55 | 0 | 0.0 | 0.0 | 0.00 | 0.34 | 0.00 | 88 | 1014.2 |
| 20260902014547 | 55 | 0 | 0.0 | 1.0 | 0.00 | 0.34 | 0.00 | 88 | 1014.2 |
| 20260902014029 | 55 | 0 | 0.0 | 1.0 | 0.00 | 0.34 | 0.00 | 88 | 1014.2 |
| 20260902013530 | 55 | 84 | 0.0 | 1.0 | 0.00 | 0.34 | 0.00 | 88 | 1014.2 |
| 20260902013044 | 55 | 0 | 0.0 | 1.0 | 0.00 | 0.34 | 0.00 | 88 | 1014.2 |
| 20260902012529 | 55 | 86 | 0.0 | 1.0 | 0.00 | 0.34 | 0.00 | 88 | 1014.3 |
| 20260902012029 | 55 | 0 | 0.0 | 0.0 | 0.00 | 0.34 | 0.00 | 88 | 1014.2 |
| 20260902011545 | 55 | 0 | 0.0 | 0.0 | 0.00 | 0.34 | 0.00 | 88 | 1014.2 |
| 20260902011030 | 55 | 0 | 0.0 | 0.0 | 0.00 | 0.34 | 0.00 | 88 | 1014.3 |
| 20260902010530 | 55 | 0 | 0.0 | 0.0 | 0.00 | 0.34 | 0.00 | 88 | 1014.2 |
| 20260902010054 | 55 | 0 | 0.0 | 1.0 | 0.00 | 0.34 | 0.00 | 88 | 1014.3 |
| 20260902005531 | 55 | 0 | 0.0 | 1.0 | 0.00 | 0.34 | 0.00 | 88 | 1014.3 |
| 20260902005033 | 56 | 0 | 0.0 | 1.0 | 0.00 | 0.34 | 0.00 | 88 | 1014.3 |
| 20260902004554 | 55 | 0 | 0.0 | 0.0 | 0.00 | 0.34 | 0.00 | 88 | 1014.2 |
| 20260902004031 | 55 | 0 | 0.0 | 0.0 | 0.00 | 0.34 | 0.00 | 88 | 1014.3 |
| 20260902003531 | 55 | 0 | 0.0 | 0.0 | 0.00 | 0.34 | 0.00 | 88 | 1014.3 |
| 20260902003050 | 55 | 0 | 0.0 | 0.0 | 0.00 | 0.34 | 0.00 | 88 | 1014.3 |
| 20260902002531 | 55 | 0 | 0.0 | 0.0 | 0.00 | 0.34 | 0.00 | 88 | 1014.4 |
| 20260902002031 | 55 | 0 | 0.0 | 0.0 | 0.00 | 0.34 | 0.00 | 88 | 1014.3 |
| 20260902001546 | 55 | 0 | 0.0 | 1.0 | 0.00 | 0.34 | 0.00 | 88 | 1014.3 |
| 20260902001031 | 55 | 0 | 0.0 | 1.0 | 0.00 | 0.34 | 0.00 | 88 | 1014.3 |
| 20260902000531 | 56 | 0 | 0.0 | 1.0 | 0.00 | 0.34 | 0.00 | 88 | 1014.3 |
| 20260902000056 | 56 | 259 | 0.0 | 1.0 | 0.00 | 0.34 | 0.00 | 88 | 1014.2 |
| 20260901235532 | 55 | 278 | 0.0 | 2.0 | 0.00 | 0.34 | 0.00 | 88 | 1014.3 |
| 20260901235031 | 55 | 302 | 0.0 | 2.0 | 0.01 | 0.34 | 0.00 | 88 | 1014.3 |
| 20260901234559 | 56 | 269 | 0.0 | 1.0 | 0.01 | 0.34 | 0.00 | 88 | 1014.2 |
| 20260901234035 | 55 | 297 | 0.0 | 1.0 | 0.01 | 0.34 | 0.00 | 88 | 1014.3 |
| 20260901233531 | 56 | 307 | 0.0 | 1.0 | 0.01 | 0.34 | 0.00 | 88 | 1014.4 |
| 20260901233047 | 55 | 264 | 0.0 | 1.0 | 0.01 | 0.34 | 0.00 | 88 | 1014.4 |
| 20260901232533 | 56 | 288 | 0.0 | 1.0 | 0.01 | 0.34 | 0.00 | 88 | 1014.4 |
| 20260901232032 | 56 | 0 | 0.0 | 1.0 | 0.00 | 0.33 | 0.00 | 88 | 1014.5 |
| 20260901231545 | 56 | 0 | 0.0 | 1.0 | 0.00 | 0.33 | 0.00 | 88 | 1014.5 |
| 20260901231031 | 55 | 0 | 0.0 | 1.0 | 0.00 | 0.33 | 0.00 | 88 | 1014.4 |
| 20260901230531 | 56 | 0 | 0.0 | 1.0 | 0.00 | 0.33 | 0.00 | 88 | 1014.4 |
| 20260901230047 | 56 | 0 | 0.0 | 0.0 | 0.00 | 0.33 | 0.00 | 88 | 1014.5 |
| 20260901225532 | 56 | 0 | 0.0 | 0.0 | 0.00 | 0.33 | 0.33 | 88 | 1014.5 |
| 20260901225031 | 56 | 0 | 0.0 | 1.0 | 0.00 | 0.33 | 0.33 | 88 | 1014.5 |
| 20260901224544 | 56 | 0 | 0.0 | 1.0 | 0.00 | 0.33 | 0.33 | 88 | 1014.5 |
| 20260901224028 | 56 | 0 | 0.0 | 1.0 | 0.00 | 0.33 | 0.33 | 88 | 1014.4 |
| 20260901223531 | 56 | 0 | 0.0 | 1.0 | 0.00 | 0.33 | 0.33 | 88 | 1014.3 |
| 20260901223046 | 56 | 0 | 0.0 | 0.0 | 0.00 | 0.33 | 0.33 | 88 | 1014.2 |
| 20260901222536 | 56 | 0 | 0.0 | 1.0 | 0.00 | 0.33 | 0.33 | 88 | 1014.3 |
| 20260901222031 | 56 | 0 | 0.0 | 1.0 | 0.00 | 0.33 | 0.33 | 88 | 1014.2 |
| 20260901221617 | 56 | 0 | 0.0 | 1.0 | 0.00 | 0.33 | 0.33 | 88 | 1014.2 |
| 20260901221031 | 56 | 0 | 0.0 | 1.0 | 0.00 | 0.33 | 0.33 | 88 | 1014.1 |
| 20260901220531 | 56 | 269 | 0.0 | 2.0 | 0.00 | 0.33 | 0.33 | 88 | 1014.0 |
| 20260901215531 | 56 | 275 | 0.0 | 2.0 | 0.00 | 0.33 | 0.33 | 88 | 1014.1 |
| 20260901215031 | 56 | 276 | 0.0 | 1.0 | 0.00 | 0.33 | 0.33 | 88 | 1014.1 |
| 20260901214547 | 56 | 276 | 0.0 | 1.0 | 0.00 | 0.33 | 0.33 | 88 | 1014.2 |
| 20260901214030 | 56 | 276 | 0.0 | 1.0 | 0.00 | 0.33 | 0.33 | 88 | 1014.3 |
| 20260901213529 | 56 | 268 | 0.0 | 1.0 | 0.00 | 0.33 | 0.33 | 88 | 1014.2 |
| 20260901213104 | 56 | 276 | 0.0 | 1.0 | 0.00 | 0.33 | 0.33 | 88 | 1014.2 |
| 20260901212528 | 56 | 275 | 0.0 | 1.0 | 0.00 | 0.33 | 0.33 | 88 | 1014.1 |
| 20260901212031 | 56 | 270 | 0.0 | 1.0 | 0.00 | 0.33 | 0.33 | 88 | 1014.1 |
| 20260901211551 | 56 | 0 | 0.0 | 1.0 | 0.00 | 0.33 | 0.33 | 88 | 1014.1 |
| 20260901211031 | 56 | 0 | 0.0 | 0.0 | 0.00 | 0.33 | 0.33 | 88 | 1014.1 |
| 20260901210531 | 56 | 0 | 0.0 | 0.0 | 0.00 | 0.33 | 0.33 | 88 | 1014.0 |
| 20260901210043 | 56 | 0 | 0.0 | 1.0 | 0.00 | 0.33 | 0.33 | 88 | 1014.0 |
| 20260901205531 | 56 | 0 | 0.0 | 1.0 | 0.00 | 0.33 | 0.33 | 88 | 1013.9 |
| 20260901205030 | 56 | 0 | 0.0 | 0.0 | 0.00 | 0.33 | 0.33 | 88 | 1013.9 |
| 20260901204548 | 56 | 0 | 0.0 | 0.0 | 0.00 | 0.33 | 0.33 | 88 | 1013.9 |
| 20260901204031 | 56 | 0 | 0.0 | 0.0 | 0.00 | 0.33 | 0.33 | 88 | 1013.9 |
| 20260901203534 | 56 | 0 | 0.0 | 0.0 | 0.00 | 0.33 | 0.33 | 88 | 1013.9 |
| 20260901203101 | 56 | 0 | 0.0 | 0.0 | 0.00 | 0.33 | 0.33 | 88 | 1013.9 |
| 20260901202529 | 56 | 0 | 0.0 | 1.0 | 0.00 | 0.33 | 0.33 | 88 | 1013.9 |
| 20260901202029 | 56 | 0 | 0.0 | 1.0 | 0.00 | 0.33 | 0.33 | 87 | 1013.9 |
| 20260901201552 | 56 | 0 | 0.0 | 1.0 | 0.00 | 0.33 | 0.33 | 88 | 1013.9 |
| 20260901201031 | 56 | 261 | 0.0 | 1.0 | 0.00 | 0.33 | 0.33 | 87 | 1013.8 |
| 20260901200533 | 56 | 261 | 0.0 | 2.0 | 0.00 | 0.33 | 0.33 | 87 | 1013.8 |
| 20260901200052 | 56 | 276 | 0.0 | 2.0 | 0.00 | 0.33 | 0.33 | 87 | 1013.9 |
| 20260901195531 | 56 | 257 | 0.0 | 1.0 | 0.00 | 0.33 | 0.33 | 87 | 1013.9 |
| 20260901195038 | 56 | 0 | 0.0 | 1.0 | 0.00 | 0.33 | 0.33 | 87 | 1013.9 |
| 20260901194545 | 56 | 266 | 0.0 | 1.0 | 0.00 | 0.33 | 0.33 | 87 | 1013.8 |
| 20260901194032 | 56 | 231 | 0.0 | 1.0 | 0.00 | 0.33 | 0.33 | 87 | 1013.9 |
| 20260901193528 | 57 | 0 | 0.0 | 1.0 | 0.00 | 0.33 | 0.33 | 87 | 1013.8 |
| 20260901193057 | 57 | 0 | 0.0 | 1.0 | 0.00 | 0.33 | 0.33 | 87 | 1013.8 |
| 20260901192533 | 57 | 0 | 0.0 | 1.0 | 0.00 | 0.33 | 0.33 | 87 | 1013.7 |
| 20260901192035 | 57 | 274 | 0.0 | 1.0 | 0.00 | 0.33 | 0.33 | 87 | 1013.6 |
| 20260901191547 | 57 | 0 | 0.0 | 1.0 | 0.00 | 0.33 | 0.33 | 87 | 1013.6 |
| 20260901191031 | 57 | 0 | 0.0 | 3.0 | 0.00 | 0.33 | 0.33 | 87 | 1013.6 |
| 20260901190529 | 57 | 274 | 0.0 | 3.0 | 0.00 | 0.33 | 0.33 | 87 | 1013.5 |
| 20260901190046 | 57 | 254 | 0.0 | 1.0 | 0.00 | 0.33 | 0.33 | 87 | 1013.6 |
| 20260901185531 | 57 | 0 | 0.0 | 1.0 | 0.00 | 0.33 | 0.33 | 87 | 1013.5 |
| 20260901185033 | 57 | 0 | 0.0 | 1.0 | 0.00 | 0.33 | 0.33 | 87 | 1013.5 |
| 20260901184553 | 57 | 0 | 0.0 | 1.0 | 0.00 | 0.33 | 0.33 | 87 | 1013.5 |
| 20260901184029 | 57 | 0 | 0.0 | 1.0 | 0.00 | 0.33 | 0.33 | 87 | 1013.5 |
| 20260901183530 | 57 | 0 | 0.0 | 1.0 | 0.00 | 0.33 | 0.33 | 87 | 1013.5 |
| 20260901183051 | 57 | 0 | 0.0 | 2.0 | 0.00 | 0.33 | 0.33 | 87 | 1013.4 |
| 20260901182531 | 58 | 0 | 0.0 | 2.0 | 0.00 | 0.33 | 0.33 | 87 | 1013.3 |
| 20260901182031 | 58 | 0 | 0.0 | 1.0 | 0.00 | 0.33 | 0.33 | 87 | 1013.4 |
| 20260901181546 | 58 | 0 | 0.0 | 1.0 | 0.00 | 0.33 | 0.33 | 87 | 1013.4 |
| 20260901181033 | 58 | 0 | 0.0 | 1.0 | 0.00 | 0.33 | 0.33 | 87 | 1013.4 |
| 20260901180531 | 58 | 223 | 0.0 | 2.0 | 0.00 | 0.33 | 0.33 | 88 | 1013.4 |
| 20260901180044 | 57 | 267 | 0.0 | 2.0 | 0.00 | 0.33 | 0.33 | 87 | 1013.4 |
| 20260901175529 | 57 | 280 | 0.0 | 2.0 | 0.00 | 0.33 | 0.33 | 87 | 1013.4 |
| 20260901175028 | 58 | 0 | 0.0 | 2.0 | 0.00 | 0.33 | 0.33 | 87 | 1013.4 |
| 20260901174551 | 58 | 265 | 0.0 | 1.0 | 0.00 | 0.33 | 0.33 | 87 | 1013.3 |
| 20260901174031 | 57 | 243 | 0.0 | 1.0 | 0.00 | 0.33 | 0.33 | 87 | 1013.4 |
| 20260901173531 | 58 | 280 | 0.0 | 1.0 | 0.00 | 0.33 | 0.33 | 87 | 1013.4 |
| 20260901173049 | 58 | 272 | 0.0 | 1.0 | 0.00 | 0.33 | 0.33 | 87 | 1013.3 |
| 20260901172533 | 58 | 0 | 0.0 | 1.0 | 0.00 | 0.33 | 0.33 | 87 | 1013.3 |
| 20260901172031 | 58 | 0 | 0.0 | 2.0 | 0.00 | 0.33 | 0.33 | 87 | 1013.3 |
| 20260901171546 | 58 | 235 | 0.0 | 4.0 | 0.00 | 0.33 | 0.33 | 87 | 1013.2 |
| 20260901171032 | 58 | 285 | 1.0 | 4.0 | 0.00 | 0.33 | 0.33 | 87 | 1013.2 |
| 20260901170532 | 58 | 231 | 1.0 | 4.0 | 0.00 | 0.33 | 0.33 | 87 | 1013.2 |
| 20260901170057 | 58 | 290 | 1.0 | 3.0 | 0.00 | 0.33 | 0.33 | 87 | 1013.2 |
| 20260901165530 | 58 | 222 | 0.0 | 1.0 | 0.00 | 0.33 | 0.33 | 88 | 1013.0 |
| 20260901165028 | 58 | 0 | 0.0 | 1.0 | 0.00 | 0.33 | 0.33 | 87 | 1013.1 |
| 20260901164553 | 58 | 341 | 0.0 | 1.0 | 0.00 | 0.33 | 0.33 | 87 | 1013.2 |
| 20260901164028 | 58 | 0 | 0.0 | 2.0 | 0.00 | 0.33 | 0.33 | 88 | 1013.1 |
| 20260901163531 | 58 | 280 | 0.0 | 3.0 | 0.03 | 0.33 | 0.33 | 87 | 1013.1 |
| 20260901163050 | 58 | 295 | 1.0 | 3.0 | 0.03 | 0.33 | 0.33 | 87 | 1013.0 |
| 20260901162530 | 58 | 255 | 1.0 | 3.0 | 0.03 | 0.33 | 0.33 | 87 | 1013.0 |
| 20260901162030 | 58 | 276 | 1.0 | 2.0 | 0.03 | 0.33 | 0.33 | 87 | 1012.8 |
| 20260901161546 | 58 | 300 | 1.0 | 2.0 | 0.03 | 0.33 | 0.33 | 87 | 1012.9 |
| 20260901161031 | 58 | 218 | 0.0 | 2.0 | 0.03 | 0.33 | 0.33 | 87 | 1012.8 |
| 20260901160530 | 58 | 281 | 1.0 | 4.0 | 0.04 | 0.33 | 0.33 | 87 | 1012.9 |
| 20260901160055 | 58 | 264 | 1.0 | 4.0 | 0.07 | 0.33 | 0.33 | 87 | 1012.9 |
| 20260901155531 | 58 | 336 | 2.0 | 4.0 | 0.07 | 0.33 | 0.33 | 87 | 1012.8 |
| 20260901155028 | 58 | 314 | 0.0 | 5.0 | 0.07 | 0.32 | 0.32 | 87 | 1012.7 |
| 20260901154553 | 58 | 269 | 0.0 | 5.0 | 0.09 | 0.32 | 0.32 | 87 | 1012.7 |
| 20260901154031 | 58 | 295 | 2.0 | 5.0 | 0.09 | 0.32 | 0.32 | 87 | 1012.9 |
| 20260901153531 | 58 | 257 | 1.0 | 4.0 | 0.07 | 0.29 | 0.29 | 87 | 1012.9 |
| 20260901153104 | 58 | 321 | 1.0 | 4.0 | 0.07 | 0.29 | 0.29 | 87 | 1012.6 |
| 20260901152528 | 58 | 255 | 1.0 | 4.0 | 0.07 | 0.29 | 0.29 | 87 | 1012.5 |
| 20260901152030 | 58 | 269 | 1.0 | 4.0 | 0.07 | 0.29 | 0.29 | 86 | 1012.4 |
| 20260901151551 | 58 | 289 | 1.0 | 4.0 | 0.07 | 0.29 | 0.29 | 86 | 1012.5 |
| 20260901151031 | 58 | 244 | 1.0 | 4.0 | 0.07 | 0.29 | 0.29 | 86 | 1012.6 |
| 20260901150531 | 59 | 265 | 1.0 | 5.0 | 0.06 | 0.27 | 0.27 | 86 | 1012.5 |
| 20260901150049 | 59 | 246 | 2.0 | 8.0 | 0.04 | 0.25 | 0.25 | 86 | 1012.6 |
| 20260901145531 | 59 | 309 | 3.0 | 8.0 | 0.03 | 0.25 | 0.25 | 85 | 1012.5 |
| 20260901145030 | 60 | 269 | 2.0 | 7.0 | 0.03 | 0.24 | 0.24 | 85 | 1012.5 |
| 20260901144544 | 60 | 311 | 2.0 | 7.0 | 0.01 | 0.22 | 0.22 | 85 | 1012.3 |
| 20260901144030 | 61 | 288 | 2.0 | 7.0 | 0.01 | 0.22 | 0.22 | 85 | 1012.1 |
| 20260901143529 | 61 | 276 | 1.0 | 5.0 | 0.00 | 0.22 | 0.22 | 86 | 1012.0 |
| 20260901143055 | 61 | 232 | 2.0 | 5.0 | 0.00 | 0.22 | 0.22 | 86 | 1012.0 |
| 20260901142532 | 61 | 305 | 1.0 | 4.0 | 0.00 | 0.22 | 0.22 | 86 | 1012.1 |
| 20260901142028 | 61 | 307 | 1.0 | 5.0 | 0.00 | 0.22 | 0.22 | 86 | 1012.1 |
| 20260901141559 | 61 | 255 | 2.0 | 5.0 | 0.00 | 0.22 | 0.22 | 85 | 1012.1 |
| 20260901141031 | 61 | 358 | 1.0 | 4.0 | 0.00 | 0.22 | 0.22 | 85 | 1012.1 |
| 20260901140531 | 61 | 266 | 0.0 | 6.0 | 0.00 | 0.21 | 0.21 | 85 | 1012.0 |
| 20260901140058 | 61 | 333 | 1.0 | 6.0 | 0.00 | 0.21 | 0.21 | 85 | 1012.1 |
| 20260901135534 | 61 | 283 | 1.0 | 4.0 | 0.00 | 0.21 | 0.21 | 86 | 1012.1 |
| 20260901135032 | 61 | 233 | 1.0 | 3.0 | 0.00 | 0.21 | 0.21 | 86 | 1012.0 |
| 20260901134545 | 61 | 262 | 1.0 | 4.0 | 0.00 | 0.21 | 0.21 | 86 | 1011.9 |
| 20260901134037 | 61 | 298 | 1.0 | 4.0 | 0.00 | 0.21 | 0.21 | 86 | 1011.8 |
| 20260901133533 | 61 | 321 | 1.0 | 4.0 | 0.00 | 0.21 | 0.21 | 86 | 1011.6 |
| 20260901133044 | 61 | 136 | 1.0 | 6.0 | 0.01 | 0.21 | 0.21 | 86 | 1011.6 |
| 20260901132532 | 61 | 65 | 1.0 | 6.0 | 0.01 | 0.21 | 0.21 | 86 | 1011.7 |
| 20260901132032 | 61 | 253 | 1.0 | 6.0 | 0.01 | 0.21 | 0.21 | 86 | 1011.7 |
| 20260901131554 | 60 | 269 | 1.0 | 4.0 | 0.02 | 0.21 | 0.21 | 87 | 1011.8 |
| 20260901131033 | 60 | 255 | 1.0 | 5.0 | 0.02 | 0.21 | 0.21 | 86 | 1011.7 |
| 20260901130531 | 60 | 278 | 2.0 | 5.0 | 0.02 | 0.21 | 0.21 | 86 | 1011.7 |
| 20260901130047 | 60 | 302 | 1.0 | 4.0 | 0.02 | 0.21 | 0.21 | 86 | 1011.6 |
| 20260901125533 | 60 | 253 | 1.0 | 4.0 | 0.03 | 0.21 | 0.21 | 86 | 1011.7 |
| 20260901125031 | 60 | 304 | 2.0 | 4.0 | 0.03 | 0.21 | 0.21 | 86 | 1011.8 |
| 20260901124544 | 60 | 283 | 1.0 | 5.0 | 0.03 | 0.21 | 0.21 | 86 | 1011.7 |
| 20260901124031 | 60 | 322 | 2.0 | 5.0 | 0.02 | 0.20 | 0.20 | 86 | 1011.8 |
| 20260901123532 | 60 | 273 | 2.0 | 6.0 | 0.02 | 0.20 | 0.20 | 86 | 1011.7 |
| 20260901123101 | 60 | 291 | 2.0 | 6.0 | 0.01 | 0.19 | 0.19 | 86 | 1011.6 |
| 20260901122531 | 60 | 236 | 2.0 | 4.0 | 0.01 | 0.19 | 0.19 | 85 | 1011.6 |
| 20260901122031 | 60 | 271 | 1.0 | 5.0 | 0.00 | 0.18 | 0.18 | 85 | 1011.9 |
| 20260901121550 | 61 | 276 | 2.0 | 5.0 | 0.00 | 0.18 | 0.18 | 85 | 1011.7 |
| 20260901121031 | 61 | 285 | 2.0 | 8.0 | 0.00 | 0.18 | 0.18 | 85 | 1011.7 |
| 20260901120531 | 61 | 295 | 2.0 | 8.0 | 0.00 | 0.18 | 0.18 | 85 | 1011.6 |
| 20260901120051 | 61 | 254 | 2.0 | 6.0 | 0.00 | 0.18 | 0.18 | 85 | 1011.5 |
| 20260901115533 | 61 | 135 | 2.0 | 6.0 | 0.00 | 0.18 | 0.18 | 85 | 1011.6 |
| 20260901115031 | 61 | 288 | 1.0 | 6.0 | 0.00 | 0.18 | 0.18 | 86 | 1011.5 |
| 20260901114555 | 61 | 307 | 1.0 | 7.0 | 0.00 | 0.18 | 0.18 | 86 | 1011.5 |
| 20260901114033 | 61 | 271 | 2.0 | 7.0 | 0.00 | 0.18 | 0.18 | 86 | 1011.6 |
| 20260901113532 | 61 | 271 | 2.0 | 7.0 | 0.00 | 0.18 | 0.18 | 86 | 1011.6 |
| 20260901113043 | 61 | 289 | 2.0 | 8.0 | 0.00 | 0.18 | 0.18 | 87 | 1011.5 |
| 20260901112534 | 60 | 96 | 2.0 | 8.0 | 0.00 | 0.18 | 0.18 | 87 | 1011.3 |
| 20260901112032 | 60 | 245 | 2.0 | 8.0 | 0.00 | 0.18 | 0.18 | 87 | 1011.4 |
| 20260901111553 | 60 | 249 | 1.0 | 5.0 | 0.00 | 0.18 | 0.18 | 87 | 1011.3 |
| 20260901111031 | 60 | 279 | 2.0 | 6.0 | 0.01 | 0.18 | 0.18 | 87 | 1011.3 |
| 20260901110530 | 60 | 220 | 1.0 | 6.0 | 0.01 | 0.18 | 0.18 | 87 | 1011.4 |
| 20260901110052 | 60 | 243 | 2.0 | 6.0 | 0.02 | 0.18 | 0.18 | 87 | 1011.3 |
| 20260901105549 | 60 | 217 | 1.0 | 5.0 | 0.03 | 0.18 | 0.18 | 87 | 1011.4 |
| 20260901105033 | 60 | 61 | 1.0 | 4.0 | 0.03 | 0.18 | 0.18 | 87 | 1011.3 |
| 20260901104545 | 60 | 285 | 1.0 | 4.0 | 0.03 | 0.18 | 0.18 | 88 | 1011.2 |
| 20260901104032 | 60 | 282 | 1.0 | 4.0 | 0.03 | 0.18 | 0.18 | 88 | 1011.4 |
| 20260901103531 | 59 | 242 | 1.0 | 4.0 | 0.03 | 0.17 | 0.17 | 88 | 1011.4 |
| 20260901103051 | 59 | 297 | 1.0 | 4.0 | 0.03 | 0.17 | 0.17 | 88 | 1011.5 |
| 20260901102531 | 59 | 187 | 1.0 | 4.0 | 0.03 | 0.17 | 0.17 | 88 | 1011.5 |
| 20260901102031 | 58 | 209 | 1.0 | 4.0 | 0.03 | 0.17 | 0.17 | 87 | 1011.4 |
| 20260901101551 | 58 | 0 | 0.0 | 5.0 | 0.03 | 0.16 | 0.16 | 87 | 1011.6 |
| 20260901101031 | 58 | 244 | 1.0 | 5.0 | 0.03 | 0.16 | 0.16 | 87 | 1011.5 |
| 20260901100531 | 58 | 281 | 1.0 | 4.0 | 0.03 | 0.16 | 0.16 | 87 | 1011.5 |
| 20260901100046 | 58 | 239 | 1.0 | 4.0 | 0.03 | 0.15 | 0.15 | 87 | 1011.6 |